Regional Weather Roundup
Issued by NWS

Home | Current Version | Previous Version | Graphics & Text | Print | Product List | Glossary On
Versions: 1 2 3 4 5 6 7 8 9 10 11 12 13 14 15 16 17 18 19 20 21 22 23 24 25 26 27 28 29 30 31 32 33 34 35 36 37 38 39 40 41 42 43 44 45 46 47 48 49 50
000
ASUS45 KCYS 031910
RWRWY

WYOMING REGIONAL WEATHER ROUNDUP
NATIONAL WEATHER SERVICE CHEYENNE WY
100 PM MDT TUE MAY 03 2016

NOTE:  "FAIR" INDICATES FEW OR NO CLOUDS BELOW 12,000 FEET
WITH NO SIGNIFICANT WEATHER AND/OR OBSTRUCTIONS TO VISIBILITY.

WYZ001-032000-
YELLOWSTONE NATIONAL PARK

CITY           SKY/WX    TMP DP  RH WIND       PRES   REMARKS
LK YELLOWSTONE   N/A     50  15  24 SE6       30.36
W YELLOWSTONE  NOT AVBL

$$
WYZ002>013-054>058-071-098>099-032000-
NORTHERN WYOMING

CITY           SKY/WX    TMP DP  RH WIND       PRES   REMARKS
JACKSON        FAIR      63  27  25 E5        30.28F
CODY           FAIR      68  30  24 N5        30.19F
GREYBULL       FAIR      70  29  21 CALM      30.17F
WORLAND        FAIR      67  33  28 VRB3      30.18F
SHERIDAN       FAIR      72  38  29 E6        30.17F
BUFFALO        FAIR      67  33  28 E5        30.20
GILLETTE       FAIR      67  39  35 NW15G22   30.17F
HULETT         FAIR      68  36  30 N10G17    30.16S
NEWCASTLE      FAIR      68  32  26 NW12G20   30.13F

$$
WYZ014>020-022>026-101>103-032000-
CENTRAL WYOMING

CITY           SKY/WX    TMP DP  RH WIND       PRES   REMARKS
BIG PINEY      FAIR      62  20  19 CALM      30.30F
PINEDALE       FAIR      61  23  23 N3        30.30F
DUBOIS         FAIR      64  16  15 E12       30.26F
LANDER         FAIR      64  30  27 SW7       30.23F
RIVERTON       FAIR      64  33  31 E8        30.25F
CASPER         FAIR      62  31  31 VRB7      30.23F
DOUGLAS        PTSUNNY   66  37  34 NW12      30.21F

$$
WYZ021-027>030-104>119-032000-
SOUTHERN WYOMING

CITY           SKY/WX    TMP DP  RH WIND       PRES   REMARKS
EVANSTON       FAIR      61  19  19 E8        30.31F
KEMMERER         N/A     61  14  16 W3        30.32F
FORT BRIDGER   CLEAR     61  21  21 CALM      30.35F
ROCK SPRINGS   FAIR      59  20  22 VRB5      30.30F
DIXON          FAIR      61  30  31 CALM      30.30F
RAWLINS        FAIR      59  27  29 VRB6      30.30S
SARATOGA       FAIR      57  30  35 NW8       30.31S
LARAMIE        FAIR      52  31  44 NW13G18   30.29F
CHEYENNE       FAIR      58  32  37 NW18G29   30.24S
TORRINGTON     FAIR      68  33  27 NW21G29   30.14F
PINE BLUFFS    FAIR      63  32  31 N20G31    30.19F

$$



USA.gov is the U.S. government's official web portal to all federal, state and local government web resources and services.